Regional Weather Roundup
Issued by NWS

Home | Current Version | Previous Version | Text Only | Print | Product List | Glossary On
Versions: 1 2 3 4 5 6 7 8 9 10 11 12 13 14 15 16 17 18 19 20 21 22 23 24 25 26 27 28 29 30 31 32 33 34 35 36 37 38 39 40 41 42 43 44 45 46 47 48 49 50
000
ASUS44 KBMX 221810
RWRAL

ALABAMA REGIONAL WEATHER ROUNDUP
NATIONAL WEATHER SERVICE BIRMINGHAM AL
100 PM CDT MON MAY 22 2017

NOTE: "FAIR" INDICATES FEW OR NO CLOUDS BELOW 12,000 FEET
WITH NO SIGNIFICANT WEATHER AND/OR OBSTRUCTIONS TO VISIBILITY.

THE REMARK "TC" DENOTES TEMPERATURE IN DEGREES CELSIUS.

ALZ001>011-014-016>018-020-221900-
NORTH ALABAMA

CITY           SKY/WX    TMP DP  RH WIND       PRES   REMARKS
MUSCLE SHOALS  CLOUDY    76  58  53 NE5       30.08F
6HR MIN TEMP:  65; 6HR MAX TEMP:  76;

HUNTSVILLE     PTSUNNY   76  60  57 NE6       30.05F
6HR MIN TEMP:  67; 6HR MAX TEMP:  77;

DECATUR        MOSUNNY   76  60  57 N8        30.06F
6HR MIN TEMP:  64; 6HR MAX TEMP:  77;

HALEYVILLE     FAIR      75  61  61 VRB3      30.09F
6HR MIN TEMP:  62; 6HR MAX TEMP:  75;

GADSDEN        CLOUDY    76  68  76 E7        30.04F
6HR MIN TEMP:  67; 6HR MAX TEMP:  77; 6HR PCP: TRACE;

$$

ALZ012-013-022-023-030>036-040>044-221900-
WEST CENTRAL ALABAMA

CITY           SKY/WX    TMP DP  RH WIND       PRES   REMARKS
TUSCALOOSA     CLOUDY    80  67  64 CALM      30.02F
6HR MIN TEMP:  70; 6HR MAX TEMP:  81; 6HR PCP: TRACE;

$$

ALZ015-024>027-033>036-040>044-221900-
CENTRAL ALABAMA

CITY           SKY/WX    TMP DP  RH WIND       PRES   REMARKS
BIRMINGHAM     CLOUDY    76  67  73 E5        30.05F
6HR MIN TEMP:  68; 6HR MAX TEMP:  77;

MONTGOMERY     PTSUNNY   83  69  62 NW7       30.00F
6HR MIN TEMP:  73; 6HR MAX TEMP:  84;

SHELBY CO ARPT CLOUDY    79  70  74 CALM      30.02F
6HR MIN TEMP:  69; 6HR MAX TEMP:  79;

MAXWELL AFB    DRIZZLE   81  72  74 SW5       30.00F
                                      6HR PCP: TRACE;

GREENVILLE     FAIR      82  66  58 SW6       30.00F
6HR MIN TEMP:  71; 6HR MAX TEMP:  84;

$$

ALZ019-021-028-029-037-038-045>048-221900-
EAST CENTRAL ALABAMA

CITY           SKY/WX    TMP DP  RH WIND       PRES   REMARKS
ANNISTON       LGT RAIN  73  66  78 CALM      30.03F
6HR MIN TEMP:  66; 6HR MAX TEMP:  75; 6HR PCP: TRACE;

ALEXANDER CITY CLOUDY    74  68  81 CALM      30.03F
6HR MIN TEMP:  68; 6HR MAX TEMP:  74; 6HR PCP:  0.42;

AUBURN         LGT RAIN  70  68  93 NW8       30.04F
6HR MIN TEMP:  69; 6HR MAX TEMP:  77; 6HR PCP:  0.44;

$$

ALZ051>064-221900-
SOUTHWEST ALABAMA

CITY           SKY/WX    TMP DP  RH WIND       PRES   REMARKS
MOBILE         CLOUDY    80  66  62 CALM      30.02S
6HR MIN TEMP:  67; 6HR MAX TEMP:  81;

BROOKLEY FIELD CLOUDY    80  69  69 SE6       30.02F
6HR MIN TEMP:  69; 6HR MAX TEMP:  81;

EVERGREEN      PTSUNNY   84  66  54 S12       30.00F
6HR MIN TEMP:  70; 6HR MAX TEMP:  85;

$$

ALZ049-050-065>069-221900-
SOUTHEAST ALABAMA

CITY           SKY/WX    TMP DP  RH WIND       PRES   REMARKS
DOTHAN         CLOUDY    83  70  64 S10       30.04F
6HR MIN TEMP:  73; 6HR MAX TEMP:  83;

OZARK          CLOUDY    83  69  61 SW8       30.01F
6HR MIN TEMP:  71; 6HR MAX TEMP:  83;

TROY           PTSUNNY   82  69  64 SW6       30.01F
6HR MIN TEMP:  68; 6HR MAX TEMP:  82;

EUFAULA        FAIR      84  70  62 S9        29.98F
6HR MIN TEMP:  71; 6HR MAX TEMP:  86; 6HR PCP: TRACE;

$$



USA.gov is the U.S. government's official web portal to all federal, state and local government web resources and services.